HG8GL Weather Reports


Display with metric or nautical units.
time (UTC)temp
F
wind
direction
speed
MPH
gust
MPH
rain 1hr
in
rain 24hr
in
rain mn
in
humidity
%
barometer
mb
20260507195510 62 202 0.0 0.0 0.06 0.32 0.32 94 1016.0
20260507195009 62 202 0.0 0.0 0.05 0.31 0.31 94 1016.0
20260507194509 62 202 0.0 0.0 0.05 0.31 0.31 94 1016.0
20260507194010 62 202 0.0 0.0 0.05 0.31 0.31 94 1016.0
20260507193509 62 202 0.0 0.0 0.04 0.30 0.30 94 1016.0
20260507193008 62 202 0.0 0.0 0.03 0.29 0.29 94 1016.0
20260507192508 62 202 0.0 0.0 0.03 0.29 0.29 94 1015.9
20260507192011 62 202 0.0 0.0 0.02 0.29 0.29 94 1015.0
20260507191509 62 202 0.0 0.0 0.02 0.28 0.28 94 1015.0
20260507191012 62 225 0.0 0.0 0.02 0.28 0.28 94 1015.0
20260507190011 62 202 0.0 0.0 0.00 0.26 0.26 94 1015.0
20260507185510 62 180 0.0 0.0 0.00 0.26 0.26 93 1015.0
20260507185010 62 180 0.0 0.0 0.00 0.26 0.26 93 1015.0
20260507184809 62 158 0.0 0.0 0.00 0.26 0.26 93 1015.0
20260507184511 62 158 0.0 0.0 0.00 0.26 0.26 93 1015.0
20260507184008 62 158 0.0 0.0 0.00 0.26 0.26 93 1014.9
20260507183511 62 158 0.0 0.0 0.00 0.26 0.26 93 1014.0
20260507183011 62 158 0.0 0.0 0.00 0.26 0.26 93 1014.0
20260507182511 62 158 0.0 0.0 0.00 0.26 0.26 93 1014.0
20260507182010 62 158 0.0 0.0 0.00 0.26 0.26 93 1014.0
20260507181509 62 158 0.0 0.0 0.00 0.26 0.26 93 1014.0
20260507175009 62 158 0.0 0.0 0.00 0.26 0.26 93 1014.0
20260507174510 62 151 0.0 0.0 0.00 0.26 0.26 93 1014.0
20260507173512 62 151 0.0 0.0 0.00 0.26 0.26 93 1014.0
20260507173011 62 156 0.0 0.0 0.00 0.26 0.26 93 1014.0
20260507172510 63 158 0.0 0.0 0.00 0.26 0.26 92 1014.0
20260507172010 63 158 0.0 0.0 0.00 0.26 0.26 92 1014.0
20260507171511 63 158 0.0 0.0 0.00 0.26 0.26 92 1014.0
20260507171010 63 158 0.0 0.0 0.00 0.26 0.26 92 1014.1
20260507165511 63 158 0.0 0.0 0.00 0.26 0.26 92 1014.9
20260507165009 63 158 0.0 0.0 0.00 0.26 0.26 92 1014.0
20260507164511 63 158 0.0 0.0 0.00 0.26 0.26 92 1014.0
20260507164009 63 158 0.0 0.0 0.00 0.26 0.26 92 1013.9
20260507163513 63 158 0.0 0.0 0.00 0.26 0.26 92 1013.0
20260507163011 63 158 0.0 0.0 0.00 0.26 0.26 92 1013.0
20260507162510 63 248 0.0 0.0 0.00 0.26 0.26 92 1013.1
20260507161510 63 248 0.0 0.0 0.00 0.26 0.26 92 1014.0
20260507160009 63 248 0.0 0.0 0.00 0.26 0.26 92 1014.0
20260507155008 63 248 0.0 0.0 0.00 0.26 0.26 93 1014.0
20260507154010 63 226 0.0 0.0 0.00 0.26 0.26 93 1014.0
20260507153510 63 224 0.0 0.0 0.00 0.26 0.26 93 1014.0
20260507153011 63 233 0.0 0.0 0.00 0.26 0.26 93 1014.0
20260507152509 63 201 0.0 0.0 0.00 0.26 0.26 93 1014.0
20260507152010 63 202 0.0 0.0 0.00 0.26 0.26 93 1014.0
20260507151508 63 161 0.0 0.0 0.00 0.26 0.26 93 1014.0
20260507151010 63 173 0.0 0.0 0.00 0.26 0.26 93 1014.2
20260507150008 63 158 0.0 0.0 0.00 0.26 0.26 93 1015.0
20260507145508 63 158 0.0 0.0 0.00 0.26 0.26 93 1015.0
20260507145010 63 159 0.0 0.0 0.00 0.26 0.26 93 1014.0
20260507144011 63 153 0.0 0.0 0.00 0.26 0.26 93 1014.1
20260507143510 63 161 0.0 0.0 0.00 0.26 0.26 93 1015.0
20260507143008 63 142 0.0 0.0 0.00 0.26 0.26 93 1015.0
20260507142009 63 137 0.0 0.0 0.03 0.26 0.26 93 1015.0
20260507141508 63 158 0.0 0.0 0.03 0.26 0.26 93 1015.0
20260507141010 63 147 0.0 0.0 0.03 0.26 0.26 92 1015.0
20260507140008 63 158 0.0 0.0 0.03 0.26 0.26 92 1015.0
20260507135508 63 151 0.0 0.0 0.03 0.26 0.26 91 1014.9
20260507135010 63 158 0.0 0.0 0.03 0.26 0.26 91 1014.0
20260507134508 63 158 0.0 0.0 0.03 0.26 0.26 91 1014.0
20260507134012 64 173 0.0 0.0 0.03 0.26 0.26 91 1014.0
20260507133511 64 162 0.0 0.0 0.03 0.26 0.26 91 1014.0
20260507133008 64 157 0.0 0.0 0.03 0.26 0.26 90 1014.0
20260507132509 65 129 0.0 0.0 0.03 0.25 0.25 89 1014.0
20260507131512 65 151 0.0 0.0 0.00 0.23 0.23 88 1014.0
20260507131008 65 158 0.0 0.0 0.00 0.23 0.23 88 1014.1
20260507130008 64 158 0.0 0.0 0.00 0.23 0.23 88 1015.0
20260507125011 64 202 0.0 0.0 0.00 0.23 0.23 88 1014.0
20260507124508 64 225 0.0 0.0 0.00 0.23 0.23 88 1014.0
20260507124009 64 163 0.0 0.0 0.02 0.23 0.23 88 1014.0
20260507123509 64 158 0.0 0.0 0.03 0.23 0.23 87 1014.0
20260507123009 63 147 0.0 0.0 0.03 0.23 0.23 87 1014.0
20260507122508 63 158 0.0 0.0 0.04 0.23 0.23 87 1014.0
20260507122009 63 158 0.0 0.0 0.05 0.23 0.23 86 1014.0
20260507121508 63 158 0.0 0.0 0.08 0.23 0.23 86 1014.0
20260507120010 64 188 0.0 0.0 0.08 0.23 0.23 86 1015.0
20260507115509 64 204 0.0 0.0 0.08 0.23 0.23 86 1014.9
20260507115009 64 183 0.0 0.0 0.08 0.22 0.22 86 1014.0
20260507114509 64 274 0.0 0.0 0.08 0.22 0.22 85 1014.0
20260507114010 64 257 0.0 0.0 0.06 0.20 0.20 84 1014.0
20260507112507 64 192 0.0 0.0 0.15 0.19 0.19 83 1014.0
20260507112010 64 162 0.0 0.0 0.14 0.18 0.18 83 1014.0
20260507111507 64 198 0.0 0.0 0.11 0.14 0.14 82 1014.0
20260507110010 64 266 0.0 0.0 0.14 0.14 0.14 81 1014.0
20260507105008 64 213 0.0 0.0 0.14 0.14 0.14 78 1013.0
20260507104509 65 275 0.0 0.0 0.14 0.14 0.14 76 1013.0
20260507104012 65 296 0.0 0.0 0.14 0.14 0.14 76 1013.1
20260507103517 67 300 0.0 0.0 0.13 0.13 0.13 77 1014.0
20260507103011 67 248 0.0 0.0 0.05 0.05 0.05 75 1014.0
20260507102508 68 338 0.0 0.0 0.04 0.04 0.04 71 1014.1
20260507102009 69 338 0.0 0.0 0.04 0.04 0.04 70 1015.0
20260507100008 74 176 0.0 0.0 0.00 0.00 0.00 55 1015.0
20260507095510 74 152 0.0 0.0 0.00 0.00 0.00 58 1014.8
20260507095009 73 158 0.0 0.0 0.00 0.00 0.00 59 1014.0
20260507094009 73 147 0.0 0.0 0.00 0.00 0.00 59 1014.0
20260507093010 73 158 0.0 0.0 0.00 0.00 0.00 62 1014.0
20260507092508 72 178 0.0 0.0 0.00 0.00 0.00 63 1014.0
20260507092009 72 162 0.0 0.0 0.00 0.00 0.00 63 1014.0
20260507091508 71 158 0.0 0.0 0.00 0.00 0.00 65 1014.0
20260507091013 70 176 0.0 0.0 0.00 0.00 0.00 65 1014.0
20260507090013 69 172 0.0 0.0 0.00 0.00 0.00 67 1014.0
20260507085511 69 206 0.0 0.0 0.00 0.00 0.00 67 1014.1
20260507085008 69 210 0.0 0.0 0.00 0.00 0.00 69 1015.0
20260507084009 67 161 0.0 0.0 0.00 0.00 0.00 73 1014.9
20260507083510 67 204 0.0 0.0 0.00 0.00 0.00 73 1014.0
20260507083010 67 199 0.0 0.0 0.00 0.00 0.00 73 1014.0
20260507082010 66 206 0.0 0.0 0.00 0.00 0.00 73 1015.0
20260507081508 66 171 0.0 0.0 0.00 0.00 0.00 73 1015.0
20260507081009 66 177 0.0 0.0 0.00 0.00 0.00 73 1014.8
20260507080008 66 182 0.0 0.0 0.00 0.00 0.00 72 1014.0
20260507075012 67 179 0.0 0.0 0.00 0.00 0.00 73 1014.0
20260507074511 67 224 0.0 0.0 0.00 0.00 0.00 73 1014.0
20260507074010 67 199 0.0 0.0 0.00 0.00 0.00 76 1014.0
20260507073512 67 202 0.0 0.0 0.00 0.00 0.00 76 1014.0
20260507073010 66 183 0.0 0.0 0.00 0.00 0.00 77 1014.0
20260507072509 66 190 0.0 0.0 0.00 0.00 0.00 78 1014.0
20260507071510 66 166 0.0 0.0 0.00 0.00 0.00 82 1014.0
20260507071008 65 171 0.0 0.0 0.00 0.00 0.00 83 1014.0
20260507070011 65 182 0.0 0.0 0.00 0.00 0.00 86 1014.0
20260507065008 64 178 0.0 0.0 0.00 0.00 0.00 88 1014.0
20260507064509 63 161 0.0 0.0 0.00 0.00 0.00 88 1014.0
20260507064010 63 163 0.0 0.0 0.00 0.00 0.00 88 1014.0
20260507063511 63 178 0.0 0.0 0.00 0.00 0.00 89 1014.0
20260507063009 62 180 0.0 0.0 0.00 0.00 0.00 89 1014.0
20260507062510 62 161 0.0 0.0 0.00 0.00 0.00 89 1014.0
20260507062009 62 183 0.0 0.0 0.00 0.00 0.00 89 1014.0
20260507061510 62 180 0.0 0.0 0.00 0.00 0.00 89 1014.0
20260507061011 62 158 0.0 0.0 0.00 0.00 0.00 89 1014.0
20260507060010 62 180 0.0 0.0 0.00 0.00 0.00 88 1014.0
20260507055509 61 158 0.0 0.0 0.00 0.00 0.00 88 1013.9
20260507055008 61 158 0.0 0.0 0.00 0.00 0.00 88 1013.0
20260507054509 61 161 0.0 0.0 0.00 0.00 0.00 88 1013.0
20260507054009 61 154 0.0 0.0 0.00 0.00 0.00 88 1013.0
20260507053510 61 159 0.0 0.0 0.00 0.00 0.00 87 1013.0
20260507053010 61 167 0.0 0.0 0.00 0.00 0.00 87 1013.0
20260507052507 61 183 0.0 0.0 0.00 0.00 0.00 86 1013.0
20260507051508 61 172 0.0 0.0 0.00 0.00 0.00 86 1013.0
20260507051009 61 158 0.0 0.0 0.00 0.00 0.00 86 1013.0
20260507045508 61 158 0.0 0.0 0.00 0.00 0.00 86 1013.0
20260507045010 61 157 0.0 0.0 0.00 0.00 0.00 86 1013.0
20260507044508 61 158 0.0 0.0 0.00 0.00 0.00 86 1013.0
20260507044009 61 153 0.0 0.0 0.00 0.00 0.00 85 1013.0
20260507043508 61 158 0.0 0.0 0.00 0.00 0.00 85 1013.0
20260507043010 61 157 0.0 0.0 0.00 0.00 0.00 85 1013.0
20260507042508 61 151 0.0 0.0 0.00 0.00 0.00 85 1013.0
20260507042008 61 150 0.0 0.0 0.00 0.00 0.00 85 1013.0
20260507041508 61 150 0.0 0.0 0.00 0.00 0.00 85 1013.0
20260507041008 61 155 0.0 0.0 0.00 0.00 0.00 84 1012.9
20260507035507 61 158 0.0 0.0 0.00 0.00 0.00 83 1012.0
20260507035007 61 158 0.0 0.0 0.00 0.00 0.00 83 1012.0
20260507034507 61 155 0.0 0.0 0.00 0.00 0.00 83 1012.0
20260507033508 61 158 0.0 0.0 0.00 0.00 0.00 83 1012.0
20260507032507 61 158 0.0 0.0 0.00 0.00 0.00 82 1012.0
20260507032010 61 202 0.0 0.0 0.00 0.00 0.00 82 1012.0
20260507031510 61 202 0.0 0.0 0.00 0.00 0.00 82 1012.0
20260507031009 61 218 0.0 0.0 0.00 0.00 0.00 82 1012.0
20260507030008 62 202 0.0 0.0 0.00 0.00 0.00 82 1012.0
20260507025508 62 205 0.0 0.0 0.00 0.00 0.00 82 1012.0
20260507025008 62 248 0.0 0.0 0.00 0.00 0.00 83 1012.0
20260507024509 62 241 0.0 0.0 0.00 0.00 0.00 83 1012.0
20260507023008 62 158 0.0 0.0 0.00 0.00 0.00 83 1012.0
20260507022509 62 181 0.0 0.0 0.00 0.00 0.00 83 1012.0
20260507022008 62 222 0.0 0.0 0.00 0.00 0.00 83 1012.0
20260507021509 62 222 0.0 0.0 0.00 0.00 0.00 83 1012.0
20260507021010 62 161 0.0 0.0 0.00 0.00 0.00 83 1012.0
20260507020009 62 202 0.0 0.0 0.00 0.00 0.00 83 1012.0
20260507015508 62 202 0.0 0.0 0.00 0.00 0.00 83 1012.0
20260507014009 62 237 0.0 0.0 0.00 0.00 0.00 83 1012.0
20260507013010 63 252 0.0 0.0 0.00 0.00 0.00 82 1012.0
20260507012508 63 248 0.0 0.0 0.00 0.00 0.00 82 1012.0
20260507012009 63 266 0.0 0.0 0.00 0.00 0.00 81 1012.0
20260507011508 63 254 0.0 0.0 0.00 0.00 0.00 80 1012.0
20260507005509 63 292 0.0 0.0 0.00 0.00 0.00 80 1011.0
20260507005010 63 288 0.0 0.0 0.00 0.00 0.00 80 1011.0
20260507004509 63 272 0.0 0.0 0.00 0.00 0.00 80 1011.0
20260507004009 64 274 0.0 0.0 0.00 0.00 0.00 79 1011.1
20260507003512 64 304 0.0 0.0 0.00 0.00 0.00 78 1012.0
20260507003010 64 299 0.0 0.0 0.00 0.00 0.00 75 1012.0
20260507002512 64 311 0.0 0.0 0.00 0.00 0.00 75 1012.0
20260507002008 64 288 0.0 0.0 0.00 0.00 0.00 75 1012.0
20260507001509 64 291 0.0 0.0 0.00 0.00 0.00 74 1012.0
20260507001010 65 274 0.0 0.0 0.00 0.00 0.00 73 1011.9
20260507000010 65 284 0.0 0.0 0.00 0.00 0.00 72 1011.0
20260506235508 65 296 0.0 0.0 0.00 0.00 0.00 71 1011.1
20260506235010 65 284 0.0 0.0 0.00 0.00 0.00 71 1012.0
20260506234507 65 281 0.0 0.0 0.00 0.00 0.00 71 1012.0
20260506234009 65 259 0.0 0.0 0.00 0.00 0.00 71 1012.0
20260506233009 65 272 0.0 0.0 0.00 0.00 0.00 71 1012.0
20260506232510 65 273 0.0 0.0 0.00 0.00 0.00 71 1012.0
20260506232007 65 281 0.0 0.0 0.00 0.00 0.00 71 1012.0
20260506231508 65 269 0.0 0.0 0.00 0.00 0.00 70 1012.0
20260506231008 65 252 0.0 0.0 0.00 0.00 0.00 70 1012.0
20260506230009 65 259 0.0 0.0 0.00 0.00 0.00 69 1012.0
20260506225510 65 266 0.0 0.0 0.00 0.00 0.00 69 1012.0
20260506225010 65 254 0.0 0.0 0.00 0.00 0.00 68 1012.0
20260506224509 65 271 0.0 0.0 0.00 0.00 0.00 68 1012.0
20260506224009 65 263 0.0 0.0 0.00 0.00 0.00 67 1012.0
20260506223509 65 259 0.0 0.0 0.00 0.00 0.00 67 1012.0
20260506222513 65 270 0.0 0.0 0.00 0.00 0.00 65 1012.0
20260506222009 65 250 0.0 0.0 0.00 0.00 0.00 63 1012.0
20260506221507 65 271 0.0 0.0 0.00 0.00 0.00 63 1012.0
20260506221010 65 249 0.0 0.0 0.00 0.00 0.00 64 1012.0
20260506220010 66 288 0.0 0.0 0.00 0.00 0.00 63 1012.0
20260506215507 66 262 0.0 0.0 0.00 0.00 0.00 62 1011.8
20260506214010 66 268 0.0 0.0 0.00 0.00 0.00 60 1011.0
20260506213510 66 281 0.0 0.0 0.00 0.00 0.00 59 1011.0
20260506213009 66 281 0.0 0.0 0.00 0.00 0.00 59 1011.0
20260506212507 66 277 0.0 0.0 0.00 0.00 0.00 58 1011.0
20260506212010 67 277 0.0 0.0 0.00 0.00 0.00 57 1011.0
20260506211008 67 281 0.0 0.0 0.00 0.00 0.00 57 1011.0
20260506210007 67 269 0.0 0.0 0.00 0.00 0.00 56 1011.0
20260506205507 67 274 0.0 0.0 0.00 0.00 0.00 55 1010.9
20260506204508 67 270 0.0 0.0 0.00 0.00 0.00 56 1010.0
20260506204010 67 266 0.0 0.0 0.00 0.00 0.00 56 1010.2
20260506203008 67 293 0.0 0.0 0.00 0.00 0.00 54 1011.0
20260506202008 66 238 0.0 0.0 0.00 0.00 0.00 55 1011.0
20260506201509 66 260 0.0 0.0 0.00 0.00 0.00 56 1011.0
20260506201009 66 238 0.0 0.0 0.00 0.00 0.00 58 1010.8
20260506200008 64 248 0.0 0.0 0.00 0.00 0.00 53 1010.0